Tracking 28790 objects as of 19-Apr-2024
HD Live streaming from Space Station
objects crossing your sky now

NOAA 16 DEB

Track NOAA 16 DEB now!
10-day predictions


NORAD ID: 42431
Int'l Code: 2000-055UB
Perigee: 733.8 km
Apogee: 780.2 km
Inclination: 99.0 °
Period: 99.8 minutes
Semi major axis: 7127 km
RCS: Unknown
Launch date: September 21, 2000
Source: United States (US)
Launch site: AIR FORCE WESTERN TEST RANGE (AFWTR)

Note: This is SATELLITE DEBRIS
Your satellite tracking list
Your tracking list is empty




NASA's NSSDC Master Catalog

Two Line Element Set (TLE):
1 42431U 00055UB  24107.26543372  .00039526  00000-0  11766-1 0  9997
2 42431  98.9634 267.9625 0032540 265.6814  94.0655 14.42618974396528
Source of the keplerian elements: AFSPC